KF4LQQ Weather Reports


Display with metric or nautical units.
time (UTC)temp
F
wind
direction
speed
MPH
gust
MPH
rain 1hr
in
rain 24hr
in
rain mn
in
humidity
%
barometer
mb
20201125102102 63 76 5.0 7.0 0.11 0.00 0.00 1017.3
20201125101101 62 0 0.0 0.0 0.11 0.00 0.00 1017.4
20201125100059 62 0 0.0 0.0 0.11 0.00 0.00 1017.4
20201125095357 62 70 5.0 7.0 0.11 0.00 0.00 1017.2
20201125095059 62 70 5.0 7.0 0.11 0.00 0.00 1017.2
20201125094347 62 0 0.0 0.0 0.11 0.00 0.00 1017.3
20201125094100 62 0 0.0 0.0 0.11 0.00 0.00 1017.3
20201125093059 62 0 0.0 0.0 0.11 0.00 0.00 1017.2
20201125092059 62 0 0.0 0.0 0.11 0.00 0.00 1017.2
20201125091513 62 0 0.0 0.0 0.11 0.00 0.00 1017.2
20201125091100 62 0 0.0 0.0 0.11 0.00 0.00 1017.2
20201125090522 62 0 0.0 0.0 0.11 0.00 0.00 1017.3
20201125090109 62 0 0.0 0.0 0.11 0.00 0.00 1017.3
20201125085102 63 0 0.0 0.0 0.11 0.00 0.00 1017.3
20201125084101 62 0 0.0 0.0 0.11 0.00 0.00 1017.3
20201125083559 62 76 4.0 5.0 0.11 0.00 0.00 1017.4
20201125083101 62 82 1.0 3.0 0.11 0.00 0.00 1017.3
20201125082105 62 76 4.0 5.0 0.11 0.00 0.00 1017.4
20201125082018 61 0 0.0 0.0 0.11 0.00 0.00 1017.3
20201125080102 61 56 5.0 7.0 0.11 0.00 0.00 1017.4
20201125075059 61 0 0.0 0.0 0.11 0.00 0.00 1017.3
20201125073059 61 0 0.0 0.0 0.11 0.00 0.00 1017.3
20201125072347 61 0 0.0 0.0 0.11 0.00 0.00 1017.2
20201125072233 62 0 0.0 0.0 0.11 0.00 0.00 1017.4
20201125072101 61 0 0.0 0.0 0.11 0.00 0.00 1017.2
20201125071101 62 0 0.0 0.0 0.11 0.00 0.00 1017.3
20201125070059 62 0 0.0 0.0 0.11 0.00 0.00 1017.3
20201125065059 62 0 0.0 0.0 0.11 0.00 0.00 1017.4
20201125063508 62 0 0.0 0.0 0.11 0.00 0.00 1017.5
20201125063102 62 0 0.0 0.0 0.11 0.00 0.00 1017.5
20201125062100 63 0 0.0 0.0 0.11 0.00 0.00 1017.5
20201125061100 63 0 0.0 0.0 0.11 0.00 0.00 1017.5
20201125060104 63 0 0.0 0.0 0.11 0.00 0.00 1017.5
20201125055059 63 0 0.0 0.0 0.11 0.00 0.00 1017.6
20201125054058 64 0 0.0 0.0 0.11 0.00 0.00 1017.7
20201125053102 64 0 0.0 0.0 0.11 0.00 0.00 1017.8
20201125052102 64 0 0.0 0.0 0.11 0.00 0.00 1017.8
20201125050101 65 0 0.0 0.0 0.11 0.00 0.00 1017.9
20201125045102 65 0 0.0 0.0 0.11 0.00 0.00 1017.9
20201125044101 65 0 0.0 0.0 0.11 0.00 0.00 1017.9
20201125043100 66 0 0.0 0.0 0.11 0.00 0.00 1017.9
20201125042059 66 0 0.0 0.0 0.11 0.00 0.00 1017.9
20201125041059 66 0 0.0 0.0 0.11 0.00 0.00 1018.0
20201125040556 67 65 3.0 5.0 0.11 0.00 0.00 1017.8
20201125040530 67 76 2.0 6.0 0.11 0.00 0.00 1017.9
20201125040101 67 76 2.0 6.0 0.11 0.00 0.00 1017.9
20201125035101 67 65 3.0 5.0 0.11 0.00 0.00 1017.8
20201125034058 67 37 5.0 8.0 0.11 0.00 0.00 1017.8
20201125032106 68 101 5.0 10.0 0.11 0.00 0.00 1017.6
20201125031059 68 110 5.0 8.0 0.11 0.00 0.00 1017.7
20201125030556 68 83 6.0 9.0 0.11 0.00 0.00 1017.7
20201125030101 68 83 6.0 9.0 0.11 0.00 0.00 1017.7
20201125025405 68 113 6.0 9.0 0.11 0.00 0.00 1017.7
20201125025101 68 113 6.0 9.0 0.11 0.00 0.00 1017.7
20201125024101 68 83 4.0 8.0 0.11 0.00 0.00 1017.8
20201125023058 68 115 4.0 6.0 0.11 0.00 0.00 1017.8
20201125022328 69 41 5.0 10.0 0.11 0.00 0.00 1017.8
20201125022059 69 41 5.0 10.0 0.11 0.00 0.00 1017.8
20201125021100 69 94 4.0 7.0 0.11 0.00 0.00 1017.9
20201125020110 69 72 7.0 11.0 0.11 0.00 0.00 1017.8
20201125015213 69 80 5.0 9.0 0.11 0.00 0.00 1017.5
20201125015058 69 72 6.0 10.0 0.11 0.00 0.00 1017.8
20201125014350 69 89 5.0 9.0 0.11 0.00 0.00 1017.6
20201125014058 69 89 5.0 9.0 0.11 0.00 0.00 1017.6
20201125013059 69 66 6.0 9.0 0.11 0.00 0.00 1017.5
20201125012058 69 107 5.0 9.0 0.11 0.00 0.00 1017.5
20201125011102 69 80 5.0 9.0 0.11 0.00 0.00 1017.5
20201125010102 70 69 6.0 10.0 0.11 0.00 0.00 1017.4
20201125005100 70 69 5.0 7.0 0.11 0.00 0.00 1017.5
20201125004058 70 83 6.0 8.0 0.11 0.00 0.00 1017.5
20201125003127 19 84 5.0 8.0 0.11 0.00 0.00 1017.5
20201125002058 71 97 7.0 9.0 0.11 0.00 0.00 1017.4
20201125001103 71 77 6.0 9.0 0.11 0.00 0.00 1017.3
20201125000059 71 84 5.0 8.0 0.11 0.00 0.00 1017.3
20201124235059 71 0 0.0 0.0 0.11 0.00 0.00 1017.1
20201124234059 72 0 0.0 0.0 0.11 0.00 0.00 1017.1
20201124231104 73 0 0.0 0.0 0.11 0.00 0.00 1016.9
20201124230108 73 0 0.0 0.0 0.11 0.00 0.00 1016.8
20201124225059 73 72 1.0 3.0 0.11 0.00 0.00 1016.6
20201124224100 74 0 0.0 0.0 0.11 0.00 0.00 1016.5
20201124222101 75 80 1.0 4.0 0.11 0.00 0.00 1016.3
20201124214452 79 38 7.0 13.0 0.11 0.00 0.00 1015.9
20201124214059 79 38 7.0 13.0 0.11 0.00 0.00 1015.9
20201124212058 80 27 8.0 16.0 0.11 0.00 0.00 1015.8
20201124205101 81 48 9.0 14.0 0.11 0.00 0.00 1015.8
20201124204514 81 58 6.0 13.0 0.11 0.00 0.00 1015.7
20201124203103 81 58 6.0 13.0 0.11 0.00 0.00 1015.7
20201124202105 81 66 8.0 14.0 0.11 0.00 0.00 1015.7
20201124201103 81 97 7.0 10.0 0.11 0.00 0.00 1015.8
20201124195101 81 70 11.0 16.0 0.11 0.00 0.00 1015.9
20201124194100 81 89 8.0 14.0 0.11 0.00 0.00 1015.9
20201124192059 81 53 9.0 12.0 0.11 0.00 0.00 1016.0
20201124191527 80 66 11.0 18.0 0.11 0.00 0.00 1016.0
20201124191058 80 66 11.0 18.0 0.11 0.00 0.00 1016.0
20201124190100 80 103 7.0 12.0 0.11 0.00 0.00 1016.1
20201124184514 80 63 9.0 14.0 0.11 0.00 0.00 1016.2
20201124184102 80 63 9.0 14.0 0.11 0.00 0.00 1016.2
20201124183024 79 98 7.0 12.0 0.11 0.00 0.00 1016.5
20201124182102 79 98 7.0 12.0 0.11 0.00 0.00 1016.5
20201124181516 78 37 7.0 14.0 0.11 0.00 0.00 1016.7
20201124181101 78 37 7.0 14.0 0.11 0.00 0.00 1016.7
20201124180058 78 70 12.0 17.0 0.11 0.00 0.00 1016.8
20201124174516 77 58 8.0 14.0 0.11 0.00 0.00 1017.2
20201124174256 77 58 8.0 14.0 0.11 0.00 0.00 1017.2
20201124174102 77 58 8.0 14.0 0.11 0.00 0.00 1017.2
20201124173058 77 100 9.0 15.0 0.11 0.00 0.00 1017.4
20201124172100 77 79 11.0 18.0 0.11 0.00 0.00 1017.6
20201124171256 76 56 6.0 10.0 0.11 0.00 0.00 1017.7
20201124171100 76 56 6.0 10.0 0.11 0.00 0.00 1017.7
20201124170100 75 97 10.0 16.0 0.11 0.00 0.00 1017.9
20201124164512 74 66 10.0 16.0 0.11 0.00 0.00 1018.2
20201124164059 74 66 10.0 16.0 0.11 0.00 0.00 1018.2
20201124162353 72 41 9.0 14.0 0.11 0.00 0.00 1019.0
20201124162326 73 38 12.0 20.0 0.11 0.00 0.00 1018.6
20201124162059 73 38 12.0 20.0 0.11 0.00 0.00 1018.6
20201124160100 73 80 8.0 13.0 0.11 0.00 0.00 1019.0
20201124155100 72 41 9.0 14.0 0.11 0.00 0.00 1019.0
20201124154103 71 104 11.0 18.0 0.11 0.00 0.00 1019.0
20201124153105 70 87 8.0 11.0 0.11 0.00 0.00 1019.1
20201124152059 69 62 11.0 14.0 0.11 0.00 0.00 1019.2
20201124151104 69 73 12.0 18.0 0.11 0.00 0.00 1019.2
20201124150059 69 80 11.0 17.0 0.11 0.00 0.00 1019.2
20201124145058 68 83 10.0 16.0 0.11 0.00 0.00 1019.2
20201124143102 67 62 11.0 15.0 0.11 0.00 0.00 1019.2
20201124142100 66 63 8.0 13.0 0.11 0.00 0.00 1019.2
20201124141057 66 32 10.0 14.0 0.11 0.00 0.00 1019.0
20201124140104 65 73 10.0 13.0 0.11 0.00 0.00 1018.8